星链-2454 (STARLINK-2454 )

导读 | 豆包AI

STARLINK-2454是美国太空探索技术公司SpaceX星链星座的卫星,于2021年4月7日发射升空。星链计划旨在构建全球卫星互联网星座,提供全球覆盖的宽带互联网接入服务。这款星链卫星属于星链项目的组网卫星,进入轨道后将参与星座组网运行,补充星链星座的覆盖能力与服务容量,为全球用户提供卫星互联网服务。

基本信息
目录编号:
48116
目录名称:
STARLINK-2454
国际标识:
2021-027AA
轨道中心:
EARTH
卫星名称:
星链-2454
卫星全名:
星链-2454 (STARLINK-2454 )
卫星状态:
在轨 (已飞行1802 天)
发射日期:
2021-04-07 UTC
国别 :
美国 (US)
星等 :
--
轨道信息
数据来源 国际轨道数据
星历时间: 2026-03-12T20:18:12+0800
2天前
查看轨道信息
半长轴: 6853.394km
偏心率: 0.0001223
轨道倾角: 53.162°
近地点辐角 93.454°
升交点赤经 152.152°
平近点角 266.660°
近地点: 474.418km
远地点: 476.096km
周期: 94.106分钟
每日圈数: 15.30186
详细信息
固有亮度:
5
最大亮度:
2.5
卫星平台:
Starlink V1.0
覆盖范围:
全球
运营商:
太空探索技术公司
运营商所在国:
美国
制造商(研发单位):
太空探索技术公司
制造商所在国:
美国
使用方式:
暂无
卫星简介
星链(Starlink)计划是由太空探索技术公司(SpaceX)提出的一个巨型低轨卫星互联网星座项目,计划在2019年至2024年间在太空搭建由约1.2万颗卫星组成的“星链”网络,其中1584颗将部署在地球上空550千米处的近地轨道,并从2020年开始工作。该卫星仍在工作。
2D轨道图
3D轨道图
轨道高度分析图
轨道倾角分析图
轨道综合分析图
查看轨道综合分析图